Location: Newark
(34.3481°N, 134.0494°E)
Time: 02:26:36
(UTC+00:00)

Vanguard 3 - Pass Details

Date: 01 February 2020
Orbit: 508 x 3263 km, 33.3° (Epoch: 19 February)

Event Time Altitude Azimuth Distance (km) Brightness Sun altitude
Rises 12:09:39 0° 286° (WNW) 7,234 12.7 -44.9°
Reaches altitude 10° 12:14:49 10° 283° (WNW) 6,159 12.2 -45.9°
Maximum altitude 12:32:49 53° 214° (SSW) 3,012 9.8 -49.5°
Enters shadow 12:32:50 53° 213° (SSW) 3,011 9.8 -49.5°
Drops below altitude 10° 12:44:39 10° 141° (SE) 4,184 - -51.9°
Sets 12:47:27 0° 136° (SE) 4,859 - -52.4°
